星链-31848 (STARLINK-31848 )

导读

STARLINK-31848是美国太空探索技术公司SpaceX星链星座旗下的卫星,于2024年5月18日发射入轨。星链星座旨在打造覆盖全球的卫星互联网,为全球偏远地区及移动场景提供高速网络服务,该卫星加入后进一步拓展了星链星座的覆盖能力与服务容量,推进低轨卫星互联网组网进程。

Basic Information
目录编号:
59784
目录名称:
STARLINK-31848
国际标识:
2024-093C
轨道中心:
EARTH
卫星名称:
星链-31848
卫星全名:
星链-31848 (STARLINK-31848 )
卫星状态:
在轨 (已飞行761 天)
发射日期:
2024-05-18 UTC
国别 :
美国 (US)
星等 :
--
Orbit Information
数据来源 国际轨道数据 AOE轨道数据
星历时间 2026-06-18T05:55:48+0800
6小时前
查看轨道信息
2026-06-15T12:00:00+0800
3天前
查看轨道信息
半长轴 6861.18km 6861.149km
偏心率 0.0000967 0.0003125
轨道倾角 43.005° 43.001°
近地点辐角 271.059° 265.707°
升交点赤经 359.405° 14.910°
平近点角 89.015° 89.653°
近地点 482.379km 480.867km
远地点 483.707km 485.157km
周期 94.267分钟 94.266分钟
每日圈数 15.275822 15.275927
Detailed Information
固有亮度:
5
最大亮度:
1.5
卫星平台:
Starlink v2.0 mini
覆盖范围:
全球
运营商:
太空探索技术公司
运营商所在国:
美国
制造商(研发单位):
太空探索技术公司
制造商所在国:
美国
使用方式:
暂无
Satellite Introduction
星链(Starlink)计划是由太空探索技术公司(SpaceX)提出的一个巨型低轨卫星互联网星座项目,计划在2019年至2024年间在太空搭建由约1.2万颗卫星组成的“星链”网络,其中1584颗将部署在地球上空550千米处的近地轨道,并从2020年开始工作。该卫星仍在工作。
2D Orbit Map
3D Orbit Map
Orbit Altitude Analysis Chart
Orbit Inclination Analysis Chart
Orbit Comprehensive Analysis Chart
View Comprehensive Chart